User: anonymous   Login
Location: Grums
(59.3529°N, 13.1129°E)
Time: 22:51:16
(UTC+02:00)
Language:

Envisat - Orbit

View from above orbital plane
View from above orbital plane
View from above satellite
View from above satellite

Ground track
Ground track

The orbit data is extracted from the following two-line orbital elements,

1 27386U 02009A   21289.22785436  .00000069  00000-0  36428-4 0  9998
2 27386  98.1597 277.1748 0001217  90.0910 280.4347 14.38047548 28364
Epoch (UTC): 16 October 2021 05:28:06
Eccentricity: 0.0001217
inclination: 98.1597°
perigee height: 764 km
apogee height: 766 km
right ascension of ascending node: 277.1748°
argument of perigee: 90.0910°
revolutions per day: 14.38047548
mean anomaly at epoch: 280.4347°
orbit number at epoch: 2836

The dashed part of the orbit path shows where the satellite is in the earth's shadow,  

DLR